Temp
62 62 61 61 61 61 62 62 62 63 63 62 63 63 63 62 63 78 85 89 89 80 82 93 93 92 92 88 86 85 74 67 73 75 74 83 80 84 87 84 84 84 87 89 89
62 62 62 61 62 61 61 61 61 61 61 62 62 63 63 63 80 86 85 82 81 81 94 91 88 90 90 84 86 80 72 66 75 79 77 80 82 82 82 82 80 82 89 89 88
62 62 62 61 61 62 61 62 61 62 62 61 62 63 63 68 82 91 81 81 81 84 97 95 93 90 85 87 82 78 70 73 75 78 78 80 81 84 83 79 82 80 83 86 86
62 62 61 61 61 60 61 61 61 61 60 61 62 63 63 78 77 93 81 81 81 95 95 92 90 86 83 79 82 65 73 70 73 78 78 79 83 80 83 83 89 88 88 87 86
62 62 61 61 61 60 61 61 60 60 60 62 62 63 73 82 87 94 81 83 93 95 93 91 88 86 81 81 81 73 68 71 75 77 79 82 80 80 82 86 91 89 87 87 87
61 61 61 61 61 60 60 60 60 59 60 62 63 63 80 82 94 95 95 93 96 95 93 93 90 90 85 81 78 79 75 69 72 74 78 79 79 82 83 88 87 87 87 88 88
61 61 60 60 60 60 60 59 59 59 59 62 64 74 83 85 95 96 95 95 97 96 93 95 94 90 88 80 83 79 69 72 71 68 74 77 72 75 84 87 86 87 87 88 88
60 60 60 60 60 59 59 58 57 58 60 63 65 79 86 93 98 93 96 93 96 98 96 97 97 92 88 87 81 75 71 66 72 71 75 76 59 76 85 85 85 87 87 87 88
60 60 60 60 59 58 57 57 59 60 63 66 77 83 84 82 89 97 98 93 95 96 95 95 94 88 86 82 79 76 67 66 64 74 75 70 61 78 82 85 85 86 87 87 88
60 59 59 59 58 57 56 60 62 64 71 78 82 80 87 87 94 96 98 97 93 92 89 89 89 85 85 80 62 71 71 70 67 72 72 69 74 79 82 82 84 87 88 88 89
59 59 59 58 58 56 62 81 82 80 82 87 88 86 89 95 98 95 97 93 93 90 83 87 82 77 79 83 80 79 75 71 73 76 73 71 75 76 81 80 81 86 87 88 89
59 59 58 58 56 56 73 89 88 89 82 89 87 87 92 97 87 92 98 88 86 81 85 82 78 85 85 84 80 79 75 73 73 76 75 73 73 77 71 72 79 84 87 88 91
59 58 57 56 56 64 88 90 96 93 83 85 89 89 91 94 88 89 94 90 85 82 82 79 82 85 83 82 79 80 76 74 73 74 76 73 72 74 80 81 74 83 87 88 90
58 58 57 55 62 89 89 92 95 92 79 80 85 89 91 93 85 95 98 91 85 81 83 82 88 82 81 80 83 75 82 78 75 74 69 75 59 73 77 78 79 82 84 88 91
58 57 56 53 76 87 89 96 95 90 64 84 86 97 94 87 89 87 97 91 82 82 82 79 81 80 79 82 84 78 82 80 79 78 75 73 71 71 77 74 78 82 85 89 91
57 56 55 64 74 88 92 93 91 74 62 78 86 84 84 87 87 89 88 93 90 83 84 83 87 85 85 84 85 84 80 78 79 78 67 73 73 72 76 77 80 83 86 87 90
56 54 59 76 86 88 91 90 74 67 80 76 80 84 84 82 83 85 82 80 78 72 73 80 82 86 87 80 84 83 79 65 60 62 64 73 70 76 80 80 81 81 83 85 88
54 52 61 78 85 85 88 81 64 73 77 83 82 82 79 84 83 83 81 78 84 82 79 73 69 82 87 84 80 80 81 71 56 64 70 72 66 74 82 83 83 84 84 85 87
53 84 86 87 85 85 84 70 71 75 80 78 80 77 78 82 82 81 80 80 84 85 75 75 73 83 84 86 86 79 74 84 74 74 68 75 75 82 82 81 82 84 83 83 84
73 84 83 86 88 86 79 67 75 79 80 80 73 78 76 79 77 79 79 85 83 87 89 81 72 82 80 85 83 82 85 73 75 60 59 68 68 72 76 77 80 81 82 82 83
77 81 85 89 87 82 72 76 77 82 80 77 76 76 78 77 80 78 79 84 88 87 89 86 80 76 81 79 78 78 78 78 79 74 64 62 71 80 77 79 79 80 81 81 81
77 77 87 90 77 81 76 76 63 80 82 80 79 79 77 78 78 78 77 83 90 88 80 86 83 74 76 80 82 78 79 80 71 66 72 68 69 83 80 81 81 80 81 82 82
72 77 91 87 72 74 76 76 77 78 79 78 77 80 81 77 72 79 81 86 87 86 83 85 79 69 71 77 79 77 80 82 81 79 68 65 70 82 80 79 80 81 82 82 82
72 72 80 84 79 72 70 72 73 79 77 78 77 80 77 76 80 76 79 81 86 87 71 82 83 75 68 72 79 74 76 79 79 73 72 72 73 78 79 78 79 80 81 84 82
75 69 68 70 72 70 70 69 69 70 77 77 75 74 72 69 75 75 81 80 81 72 81 86 75 78 80 79 78 77 77 76 74 76 71 75 73 80 79 80 81 82 82 80 81
67 66 72 71 67 68 61 69 68 70 70 73 71 72 73 69 72 72 74 78 78 78 78 86 75 77 74 78 77 74 77 77 77 77 75 77 75 86 84 81 81 80 80 80 80
69 72 67 62 68 68 70 68 68 68 73 74 71 70 71 74 75 78 80 81 82 79 77 77 76 72 68 76 74 68 75 77 78 80 78 72 79 82 79 78 80 81 80 80 81
MSLP
1016.85 1016.56 1016.31 1016.03 1015.86 1015.67 1015.49 1015.23 1015.04 1014.84 1014.70 1014.66 1014.52 1014.37 1013.97 1013.55 1012.95 1012.41 1010.43 1009.26 1009.32 1009.80 1009.86 1009.45 1009.13 1008.84 1008.72 1008.40 1008.94 1008.89 1008.12 1008.00 1007.46 1007.70 1008.48 1008.60 1008.88 1009.47 1009.68 1009.84 1010.16 1010.60 1010.39 1011.66 1013.29
1016.72 1016.41 1016.12 1015.93 1015.69 1015.53 1015.35 1015.16 1014.97 1014.81 1014.64 1014.55 1014.38 1014.19 1013.90 1013.54 1012.03 1010.32 1009.38 1009.42 1009.76 1009.80 1009.25 1008.71 1008.28 1008.31 1007.68 1008.25 1008.66 1008.53 1008.54 1009.42 1009.46 1009.00 1008.94 1008.97 1008.87 1009.20 1009.47 1009.66 1010.22 1010.77 1011.15 1012.32 1013.28
1016.61 1016.28 1015.97 1015.69 1015.49 1015.34 1015.17 1014.95 1014.80 1014.59 1014.42 1014.37 1014.22 1013.99 1013.74 1013.32 1011.04 1008.42 1009.06 1009.50 1009.84 1009.78 1008.79 1008.37 1008.19 1007.81 1007.23 1008.02 1008.56 1009.08 1009.44 1010.48 1010.43 1010.11 1009.81 1009.15 1009.15 1009.34 1009.02 1009.08 1009.79 1010.53 1011.53 1012.49 1013.08
1016.51 1016.14 1015.86 1015.55 1015.29 1015.12 1014.90 1014.78 1014.62 1014.48 1014.30 1014.11 1013.93 1013.73 1013.51 1012.41 1009.35 1008.54 1009.22 1009.61 1009.90 1009.30 1008.83 1008.35 1007.90 1007.17 1007.06 1007.46 1008.64 1010.01 1010.62 1011.17 1011.18 1010.66 1010.09 1009.45 1009.48 1009.43 1009.11 1009.43 1009.75 1010.59 1011.58 1012.40 1012.81
1016.52 1016.05 1015.64 1015.36 1015.13 1014.89 1014.66 1014.52 1014.46 1014.32 1014.12 1013.86 1013.65 1013.46 1013.04 1010.62 1008.53 1008.75 1009.49 1009.76 1009.57 1009.20 1008.44 1007.93 1007.48 1007.16 1006.91 1007.74 1008.55 1009.68 1011.02 1011.44 1011.51 1011.04 1010.40 1009.90 1009.55 1009.52 1009.56 1009.92 1010.08 1010.83 1011.63 1012.09 1012.53
1016.49 1016.02 1015.53 1015.15 1014.86 1014.61 1014.39 1014.21 1014.15 1014.11 1013.91 1013.64 1013.46 1013.34 1011.70 1008.81 1008.66 1008.63 1008.96 1009.33 1008.77 1008.72 1008.21 1007.91 1007.34 1007.34 1007.18 1007.83 1008.47 1009.65 1010.67 1011.58 1011.76 1011.36 1010.74 1009.90 1009.87 1009.73 1009.89 1010.16 1010.37 1010.99 1011.44 1011.83 1012.29
1016.44 1015.91 1015.42 1014.99 1014.66 1014.35 1014.11 1014.00 1013.87 1013.79 1013.68 1013.44 1013.26 1012.65 1010.24 1008.78 1008.53 1008.75 1008.94 1008.80 1008.71 1008.41 1007.78 1007.76 1007.51 1007.14 1007.09 1007.98 1008.92 1009.71 1010.45 1010.99 1011.43 1011.51 1011.02 1010.76 1010.29 1009.86 1009.97 1010.12 1010.33 1010.70 1011.28 1011.66 1012.15
1016.39 1015.88 1015.34 1014.92 1014.49 1014.12 1013.79 1013.62 1013.55 1013.48 1013.30 1013.14 1013.00 1011.77 1008.69 1008.74 1008.62 1008.82 1008.76 1008.76 1008.85 1008.54 1008.18 1007.92 1007.75 1007.14 1006.93 1008.01 1008.55 1008.80 1009.89 1010.17 1011.08 1011.45 1011.05 1010.67 1011.02 1010.50 1010.11 1010.00 1010.03 1010.38 1010.99 1011.55 1011.92
1016.27 1015.73 1015.22 1014.78 1014.36 1013.93 1013.51 1013.08 1012.91 1013.03 1012.93 1012.82 1012.20 1010.41 1008.24 1009.49 1008.49 1008.13 1008.19 1007.92 1008.28 1008.37 1008.27 1008.14 1007.57 1007.01 1007.15 1006.29 1006.30 1007.70 1008.32 1009.24 1010.50 1011.02 1010.63 1010.84 1011.02 1010.41 1010.47 1009.82 1009.51 1010.03 1010.51 1011.04 1011.53
1016.16 1015.63 1015.12 1014.61 1014.18 1013.85 1013.38 1012.89 1012.68 1012.65 1012.53 1011.90 1011.02 1009.75 1008.21 1007.29 1007.45 1007.82 1008.15 1007.81 1007.68 1007.83 1007.82 1007.53 1006.71 1005.95 1005.81 1005.63 1005.75 1006.22 1007.10 1008.40 1009.24 1010.23 1010.27 1010.58 1009.74 1009.89 1010.05 1010.00 1009.49 1009.59 1009.94 1010.40 1010.70
1015.91 1015.42 1014.90 1014.39 1013.91 1013.61 1013.03 1012.16 1011.96 1011.08 1010.17 1008.32 1007.78 1007.20 1006.80 1007.00 1007.32 1007.24 1007.64 1007.62 1007.34 1007.23 1006.44 1006.59 1005.70 1004.68 1004.62 1004.90 1005.73 1005.99 1006.59 1007.45 1008.52 1009.35 1009.52 1009.60 1009.18 1009.38 1009.71 1010.11 1009.89 1009.51 1009.59 1009.72 1010.10
1015.67 1015.14 1014.65 1014.17 1013.64 1013.11 1012.47 1009.72 1009.14 1009.17 1007.81 1007.37 1007.37 1007.11 1006.80 1006.34 1006.45 1006.76 1007.17 1006.82 1006.77 1006.22 1006.27 1006.29 1005.23 1004.59 1005.23 1005.40 1005.48 1005.58 1005.85 1006.72 1008.15 1008.81 1009.08 1008.91 1008.80 1009.09 1010.10 1010.31 1010.15 1009.63 1009.31 1009.42 1009.53
1015.42 1014.88 1014.34 1013.87 1013.40 1012.93 1010.55 1008.93 1008.72 1008.60 1007.20 1006.53 1006.30 1005.90 1005.96 1006.23 1005.68 1006.04 1006.59 1006.27 1006.09 1005.75 1005.75 1005.09 1004.65 1005.20 1005.16 1004.91 1004.88 1004.75 1005.13 1006.04 1006.70 1007.96 1008.30 1008.21 1007.78 1008.30 1008.81 1009.45 1009.89 1009.84 1009.39 1009.24 1009.26
1015.18 1014.59 1014.15 1013.58 1013.36 1010.53 1009.19 1008.83 1008.71 1008.66 1006.11 1005.52 1005.29 1005.15 1005.62 1005.32 1005.44 1005.58 1006.03 1006.07 1005.98 1005.49 1005.33 1005.13 1004.80 1005.14 1004.89 1004.46 1004.38 1004.11 1005.00 1005.64 1006.32 1006.32 1005.99 1007.45 1006.62 1007.04 1007.82 1008.61 1008.93 1009.00 1009.20 1008.82 1008.67
1014.81 1014.17 1013.84 1013.71 1011.87 1009.52 1008.89 1008.73 1008.54 1008.15 1004.79 1004.45 1004.51 1005.02 1004.83 1004.80 1004.84 1005.68 1005.83 1005.95 1005.22 1005.32 1005.72 1004.45 1004.64 1004.73 1004.49 1003.96 1004.15 1004.17 1005.13 1005.29 1005.62 1005.52 1005.92 1006.17 1005.58 1006.44 1007.15 1007.56 1007.86 1008.09 1008.15 1008.19 1008.35
1014.35 1013.60 1013.21 1012.55 1011.62 1009.29 1009.17 1008.80 1008.37 1006.64 1003.96 1003.85 1003.99 1004.24 1004.37 1004.29 1004.40 1005.27 1005.71 1005.81 1005.46 1005.20 1005.15 1004.48 1004.95 1004.65 1003.97 1004.33 1004.30 1004.89 1005.04 1005.35 1005.42 1004.96 1004.56 1005.28 1005.56 1004.65 1005.71 1006.37 1006.91 1007.27 1007.53 1007.81 1008.03
1013.68 1012.95 1012.57 1011.06 1009.29 1009.58 1009.07 1008.00 1006.41 1004.58 1004.27 1003.48 1003.20 1003.50 1003.44 1003.51 1003.97 1004.47 1004.89 1004.97 1004.51 1004.52 1004.11 1004.21 1004.16 1004.35 1004.50 1004.28 1004.66 1004.46 1003.96 1003.71 1004.37 1004.05 1003.80 1005.38 1005.55 1004.43 1005.66 1006.56 1006.90 1007.25 1007.53 1007.78 1007.92
1013.09 1012.44 1011.82 1010.63 1010.04 1009.80 1008.52 1006.96 1005.06 1003.88 1003.28 1003.44 1003.12 1003.22 1002.84 1002.86 1003.22 1003.65 1003.81 1003.67 1004.02 1003.73 1002.64 1002.97 1003.42 1003.69 1003.93 1003.49 1003.26 1003.69 1003.11 1002.84 1002.94 1003.08 1003.47 1005.25 1004.71 1004.58 1005.77 1006.60 1007.12 1007.46 1007.73 1007.89 1007.92
1012.31 1010.65 1009.98 1009.58 1009.83 1009.65 1007.60 1005.64 1004.26 1003.95 1003.58 1003.30 1003.09 1002.65 1002.39 1002.58 1002.68 1002.96 1003.07 1002.71 1002.80 1003.40 1002.80 1002.27 1002.53 1003.83 1004.09 1003.86 1003.86 1003.54 1003.76 1003.50 1003.26 1003.89 1004.04 1003.49 1004.43 1004.73 1005.78 1006.36 1006.86 1007.12 1007.76 1007.99 1008.19
1012.18 1009.98 1009.52 1009.75 1009.53 1008.64 1006.89 1004.94 1004.63 1004.83 1004.32 1003.77 1002.66 1002.39 1001.54 1001.79 1002.45 1002.37 1002.07 1002.02 1002.21 1002.65 1002.82 1002.32 1002.31 1003.25 1004.21 1004.34 1004.42 1003.80 1003.63 1003.34 1003.23 1003.03 1003.01 1003.20 1004.13 1004.15 1005.11 1005.95 1006.56 1007.21 1007.64 1008.30 1008.64
1011.74 1009.04 1009.38 1009.22 1009.15 1007.58 1005.84 1004.88 1005.05 1005.03 1004.91 1004.05 1003.09 1002.57 1002.01 1001.68 1001.81 1001.61 1001.44 1001.72 1001.74 1002.05 1002.62 1002.47 1002.40 1003.21 1003.85 1003.39 1002.66 1003.89 1003.40 1003.46 1003.12 1003.56 1003.15 1003.14 1003.25 1004.57 1005.42 1006.03 1006.55 1007.40 1007.94 1008.46 1008.84
1011.51 1008.59 1009.14 1009.06 1007.82 1007.00 1005.83 1005.79 1006.15 1005.00 1005.02 1004.47 1004.15 1003.37 1002.73 1002.34 1001.85 1001.71 1001.44 1001.23 1001.62 1002.10 1002.34 1002.46 1002.07 1001.91 1002.46 1003.71 1004.03 1003.83 1003.08 1002.81 1002.66 1002.89 1003.51 1004.24 1004.04 1004.88 1005.78 1006.31 1006.97 1007.57 1008.14 1008.59 1008.96
1012.01 1009.95 1008.95 1008.59 1007.02 1006.64 1006.58 1006.27 1006.04 1005.34 1004.90 1004.57 1004.05 1003.92 1003.45 1002.93 1002.47 1001.80 1001.55 1001.82 1002.20 1002.12 1001.67 1002.25 1002.16 1001.70 1002.59 1003.52 1003.96 1003.39 1003.33 1003.27 1003.27 1003.26 1003.31 1003.75 1003.46 1005.01 1005.96 1006.58 1007.06 1007.37 1007.94 1008.40 1008.90
1012.59 1009.68 1008.91 1008.65 1008.67 1007.77 1007.24 1006.47 1006.04 1006.04 1005.68 1005.39 1004.79 1004.51 1004.07 1003.43 1002.93 1002.29 1001.91 1002.39 1002.47 1002.23 1002.45 1002.24 1001.16 1001.33 1001.27 1001.54 1002.07 1002.68 1003.21 1003.41 1003.13 1002.54 1002.50 1003.11 1003.29 1004.29 1005.28 1006.13 1006.83 1007.38 1007.91 1008.16 1008.64
1012.97 1011.55 1011.71 1009.24 1008.90 1009.10 1008.56 1007.80 1006.76 1006.23 1006.23 1005.95 1005.25 1005.09 1004.89 1004.14 1003.16 1002.80 1002.48 1002.55 1002.97 1003.24 1002.80 1002.02 1001.37 1001.65 1001.61 1002.14 1002.58 1002.68 1002.66 1003.15 1003.14 1002.94 1002.81 1002.53 1003.30 1003.66 1004.93 1005.58 1006.32 1007.06 1007.76 1008.17 1008.48
1014.21 1013.45 1012.22 1010.94 1010.55 1009.77 1009.02 1008.07 1007.76 1007.30 1007.15 1006.04 1006.03 1005.82 1005.72 1005.14 1004.59 1003.61 1003.88 1002.89 1002.33 1003.33 1002.84 1002.11 1001.58 1002.05 1002.01 1002.56 1002.80 1002.72 1002.76 1002.84 1003.03 1003.00 1003.13 1003.21 1003.24 1003.50 1004.96 1005.89 1006.31 1007.02 1007.58 1007.97 1008.40
1016.14 1015.26 1014.20 1011.75 1010.57 1010.00 1008.93 1008.90 1008.51 1008.87 1007.75 1007.43 1007.29 1006.91 1006.05 1005.67 1005.90 1005.49 1004.93 1004.19 1003.33 1003.04 1002.64 1002.33 1002.08 1002.53 1001.99 1002.41 1002.92 1002.64 1002.32 1002.42 1002.54 1002.83 1002.96 1002.81 1003.00 1004.14 1005.14 1005.75 1006.29 1006.88 1007.54 1007.99 1008.45
Wind_Speed
13 13 13 13 12 11 11 10 10 10 9 10 9 9 10 12 14 7 8 1 2 12 9 10 8 5 6 3 0 3 3 6 6 9 9 9 12 5 2 11 3 3 7 20 18
14 14 13 13 11 11 10 10 10 9 9 9 9 8 9 9 9 9 5 3 5 12 13 12 8 6 4 2 2 4 2 3 3 4 5 6 9 6 8 8 6 10 15 19 17
14 15 14 13 12 10 10 9 9 9 8 8 9 8 8 10 7 4 10 7 9 10 7 4 3 6 1 2 2 4 3 7 9 7 3 6 7 2 10 5 6 13 17 17 16
16 15 15 14 13 12 10 10 10 9 9 9 8 7 7 7 3 6 9 8 8 7 8 6 5 4 2 2 5 6 5 4 5 6 2 6 6 3 3 9 9 13 16 14 14
17 16 15 14 13 12 10 9 9 9 9 8 7 6 7 8 8 8 7 8 10 7 10 6 5 2 3 3 7 10 4 7 3 3 5 7 6 5 6 5 13 14 14 13 12
16 18 16 15 14 13 12 10 8 8 9 8 7 6 7 6 2 3 12 11 9 9 8 6 4 4 3 4 3 10 8 8 3 4 4 5 8 6 10 8 13 14 13 12 11
18 17 17 15 15 14 12 11 9 7 8 7 6 6 7 8 2 6 9 12 6 8 7 2 3 8 2 8 5 12 10 9 6 3 1 2 7 5 6 10 12 14 11 10 9
18 17 17 17 17 15 13 11 8 7 8 6 6 7 3 3 6 8 7 7 7 5 4 3 5 5 4 11 9 2 6 3 8 9 1 4 2 0 7 10 13 13 11 10 9
18 18 17 18 17 16 13 13 6 8 6 6 7 7 8 4 8 10 8 8 10 7 3 4 6 2 6 11 10 5 5 4 6 6 2 2 5 10 5 9 12 12 12 11 10
19 18 17 19 19 16 13 7 7 10 6 6 5 7 8 4 11 9 7 9 8 8 7 8 7 10 8 7 5 8 7 2 6 9 8 10 9 12 8 7 9 12 12 10 11
20 19 18 17 17 13 8 5 8 8 7 7 4 4 7 10 11 11 11 9 8 11 11 9 11 8 4 3 6 6 5 5 5 8 7 7 4 4 4 5 9 10 11 12 11
22 20 18 17 19 8 7 6 5 6 6 5 6 5 2 7 11 11 10 12 11 14 6 8 12 2 5 7 7 7 4 9 6 7 7 5 7 5 9 6 8 9 10 11 11
23 21 19 18 13 4 7 3 2 5 7 8 5 6 10 12 11 15 14 7 13 13 14 15 5 6 8 10 8 6 5 4 5 8 5 4 8 9 13 14 10 13 12 10 12
23 21 18 20 5 2 5 5 4 5 7 11 10 7 9 7 7 4 14 9 7 13 11 11 11 8 9 11 8 7 3 3 8 9 4 5 2 8 11 17 16 16 15 15 13
24 21 18 7 8 6 6 2 2 6 6 10 9 7 10 8 14 9 8 9 11 9 9 8 10 12 12 11 4 3 2 6 7 4 6 10 8 7 6 12 15 16 16 14 13
25 23 15 6 5 3 3 2 5 9 4 10 10 13 13 11 8 11 12 8 4 6 11 8 0 5 3 1 4 7 7 4 6 7 11 9 8 9 6 3 2 5 14 15 14
27 22 6 3 3 2 5 6 8 9 5 10 11 11 15 10 10 12 14 15 11 12 12 14 12 6 7 10 9 8 12 7 4 6 2 7 7 5 6 4 0 1 2 6 12
29 17 6 4 5 6 7 8 9 2 7 4 5 7 11 11 11 13 13 14 15 11 7 12 14 13 11 13 7 11 9 8 3 5 4 5 5 5 2 6 3 2 2 3 6
28 3 3 4 2 5 10 12 6 6 1 4 7 12 14 10 7 13 15 14 13 17 10 10 5 5 6 4 9 9 11 7 9 5 9 3 2 11 6 7 6 2 0 1 2
7 3 5 4 1 7 10 13 3 4 3 5 10 6 15 15 13 11 13 12 13 13 17 4 8 6 7 7 5 10 3 8 8 5 6 7 4 5 2 4 5 1 1 1 0
6 4 5 7 5 7 10 9 6 6 4 4 4 6 8 6 14 10 7 8 15 17 13 13 10 12 9 10 7 8 10 8 9 6 9 6 2 6 1 4 4 4 3 4 3
6 3 5 3 6 3 8 4 1 7 4 6 6 8 8 5 11 9 11 12 12 13 15 16 9 9 5 6 1 3 9 7 9 7 3 8 7 6 3 3 3 6 4 2 3
7 3 2 4 5 7 4 7 5 7 8 4 6 5 3 7 6 10 6 1 10 14 11 12 11 8 10 11 7 9 9 10 9 8 11 9 5 8 6 6 6 5 3 3 1
6 3 3 2 2 6 4 9 10 6 10 5 6 5 7 11 10 6 9 4 10 14 6 10 15 12 8 3 3 8 10 12 13 10 7 9 1 11 7 9 8 7 3 2 2
3 5 4 3 4 7 5 3 8 7 5 4 5 3 3 6 10 11 13 6 8 4 8 14 14 13 12 4 5 10 9 12 14 13 9 1 4 1 4 4 7 8 6 3 2
6 6 4 5 4 7 3 5 8 4 4 7 9 2 5 5 4 6 8 8 8 8 8 11 11 8 13 7 7 10 11 11 14 14 8 14 9 6 7 5 8 9 7 5 3
5 3 6 1 5 6 2 4 4 4 6 8 7 8 9 6 8 11 13 14 10 10 12 10 8 10 14 10 9 13 14 13 13 11 13 14 10 8 9 10 10 9 7 5 2
Wind_Direction
345 340 334 328 327 324 321 320 319 316 318 319 326 324 315 315 297 219 233 63 138 156 227 159 192 182 204 166 268 270 218 192 171 138 123 132 128 95 78 140 78 35 148 133 144
346 341 338 332 326 326 323 318 315 314 314 315 318 318 312 317 270 245 113 170 143 167 186 186 179 203 189 130 184 284 146 82 59 79 112 126 140 126 151 147 102 118 109 134 151
350 347 343 334 330 324 321 317 314 308 308 313 310 309 305 296 246 110 132 156 156 197 222 228 222 252 247 81 57 38 94 109 75 78 226 121 145 62 149 138 121 140 139 150 157
353 349 346 340 333 328 323 315 314 310 305 302 304 300 299 243 178 87 149 156 165 223 208 203 221 234 337 71 112 103 77 84 102 66 98 130 100 173 170 36 123 138 147 155 164
354 351 345 340 336 329 321 314 312 306 300 292 291 287 254 213 88 109 151 156 180 204 210 215 249 275 29 94 94 105 155 95 113 56 68 162 158 84 134 84 127 132 153 165 170
344 351 347 341 337 333 327 319 307 301 294 286 278 277 245 198 61 148 175 177 209 209 210 238 318 309 75 70 343 112 127 139 118 33 57 141 126 201 112 136 138 149 156 166 170
345 345 343 340 337 332 323 312 300 288 283 276 265 260 249 62 138 158 179 196 201 220 210 225 329 260 144 113 109 129 122 130 110 351 340 210 124 89 138 151 152 165 163 163 168
340 338 340 339 336 330 321 308 284 258 260 249 247 253 53 100 142 165 177 181 206 200 285 314 271 266 310 127 144 155 155 172 144 184 109 254 49 276 188 174 170 170 172 177 174
339 336 334 338 334 330 319 310 248 216 220 206 230 255 125 140 194 161 190 177 169 191 222 297 232 280 179 226 170 182 65 92 144 203 150 133 198 225 197 200 187 178 177 186 180
336 334 333 335 333 329 315 315 136 169 202 220 262 235 161 171 146 157 175 161 173 173 190 220 230 227 212 220 346 74 81 85 116 169 210 179 178 139 166 200 211 186 185 193 189
334 333 333 330 331 318 278 201 204 177 208 298 67 334 132 115 150 177 174 183 178 204 211 204 247 216 312 336 19 323 6 70 90 151 184 218 192 228 190 209 211 196 201 198 209
332 332 332 331 331 315 245 269 38 6 290 204 250 255 194 169 162 154 180 195 199 207 211 200 241 104 305 295 269 298 304 94 103 143 197 185 229 212 148 230 236 233 214 212 204
328 330 331 332 332 221 261 298 127 312 254 153 184 194 171 195 186 170 201 196 207 217 215 247 87 27 282 265 258 241 311 126 89 157 191 249 224 200 198 203 228 236 255 220 229
326 327 331 328 279 121 220 134 249 272 256 140 185 160 170 214 186 192 206 201 205 225 231 253 260 256 282 261 252 253 13 169 152 214 99 231 153 165 182 201 221 230 230 240 229
323 325 325 302 327 227 85 287 227 227 256 137 128 124 158 210 124 171 181 194 229 192 218 196 205 224 240 244 294 354 178 170 196 222 262 158 253 108 177 207 224 230 232 235 233
324 323 320 186 219 318 257 250 230 230 210 155 149 180 179 202 170 142 183 230 331 207 222 280 92 267 282 309 187 130 148 155 201 229 231 89 301 144 150 236 132 213 229 239 244
326 322 268 301 29 318 261 216 227 248 134 166 185 180 205 174 170 180 190 199 209 203 206 208 211 176 189 137 159 216 214 201 171 239 139 84 257 331 121 175 190 325 231 242 229
323 318 168 289 305 295 218 213 234 315 220 109 195 193 210 189 212 195 195 213 214 248 233 205 170 192 183 249 217 222 296 301 265 268 108 132 239 97 109 151 173 201 311 288 232
311 182 232 38 277 232 219 214 211 238 86 227 184 222 199 208 245 203 215 218 200 209 250 204 174 134 205 215 266 152 233 1 294 219 264 139 175 220 175 195 194 223 135 298 354
314 275 55 43 102 233 227 230 225 258 291 234 245 216 218 192 200 203 189 207 204 203 239 201 183 178 152 180 171 283 97 211 201 251 249 135 266 294 193 203 191 187 112 98 80
265 240 56 328 266 216 221 223 230 217 264 265 235 236 242 209 221 199 228 192 212 187 208 234 256 148 181 213 178 172 213 233 306 317 310 289 341 64 347 169 145 115 84 72 14
304 214 36 271 214 241 232 240 306 226 198 261 277 279 259 192 214 220 229 242 180 173 199 214 239 193 190 109 317 279 287 253 251 184 202 305 294 87 141 155 158 140 143 109 8
326 318 63 265 242 208 176 230 258 238 231 245 250 247 299 249 243 226 224 316 188 200 197 176 230 195 187 177 186 229 201 248 266 294 271 286 102 115 158 194 193 199 189 204 297
293 274 122 84 345 299 263 233 233 205 262 273 290 269 259 248 240 267 229 154 206 221 6 221 238 230 240 16 17 198 218 228 244 246 246 228 315 157 183 198 209 207 214 202 141
345 58 10 3 107 330 288 312 250 232 231 251 223 250 300 265 250 229 247 165 191 177 208 225 233 235 255 290 259 279 267 212 229 254 269 288 229 286 95 200 196 206 189 194 180
335 337 335 288 282 277 173 238 263 235 257 199 253 33 290 281 312 337 338 273 209 187 212 224 234 206 241 215 240 250 242 228 228 249 246 273 267 303 121 158 173 181 200 209 209
4 319 283 191 280 257 263 274 274 302 255 268 305 307 279 308 331 298 286 282 276 273 205 212 200 210 240 198 229 241 238 228 236 227 243 254 261 132 163 161 169 174 188 197 207